This demonstration page uses our WeatherBlox Daily Observations layout. Learn more.

40.92945, -100.16068

Hourly Observations for December 10, 2015

Temp ( °F °C ) Dew Point ( °F °C ) Humidity (%) Winds ( mph kmh ) Pressure ( in mb ) Visibility ( mi km ) Precip ( " mm )
12:15 am 00:15 Clear 54 12.3 32 0.1 43 43 W 10 17 29.5 999 10 16.0934 N/A
12:35 am 00:35 Clear 55 12.6 32 0 42 42 W 9 15 29.5 999 10 16.0934 N/A
12:55 am 00:55 Clear 55 12.8 32 -0.1 41 41 W 10 17 29.5 999 10 16.0934 N/A
1:15 am 01:15 Clear 55 12.8 32 -0.2 41 41 W 10 17 29.5 999 10 16.0934 N/A
1:35 am 01:35 Clear 58 14.2 30 -1.2 35 35 WNW 14 22 29.5 999 10 16.0934 N/A
1:55 am 01:55 Clear 59 15.1 29 -1.5 32 32 W 12 19 29.5 999 10 16.0934 N/A
2:15 am 02:15 Mostly Cloudy 61 16 29 -1.6 30 30 WNW 17 28 29.5 999 10 16.0934 N/A
2:35 am 02:35 Mostly Cloudy 62 16.5 29 -1.8 29 29 WNW 18 30 29.5 999 10 16.0934 N/A
2:55 am 02:55 Clear 63 17 29 -1.9 28 28 WNW 25 41 29.5 999 10 16.0934 N/A
3:15 am 03:15 Clear 62 16.6 30 -1.3 30 30 WNW 30 48 29.5 999 10 16.0934 N/A
3:35 am 03:35 Clear 62 16.9 30 -1.2 29 29 WNW 35 56 29.5 999 10 16.0934 N/A
3:55 am 03:55 Clear 62 16.7 30 -1.3 29 29 WNW 40 65 29.53 1000 10 16.0934 N/A
4:15 am 04:15 Clear 61 16 30 -1 31 31 WNW 33 54 29.59 1002 10 16.0934 N/A
4:35 am 04:35 Clear 59 15.1 31 -0.5 35 35 WNW 32 52 29.59 1002 10 16.0934 N/A
4:55 am 04:55 Clear 58 14.2 32 -0.1 38 38 WNW 26 43 29.59 1002 10 16.0934 N/A
5:15 am 05:15 Clear 57 13.7 32 -0.1 39 39 NW 32 52 29.62 1003 10 16.0934 N/A
5:35 am 05:35 Clear 53 11.8 32 0 45 45 NW 20 31 29.68 1005 10 16.0934 N/A
5:55 am 05:55 Clear 51 10.4 32 0 49 49 NW 17 28 29.71 1006 10 16.0934 N/A
6:15 am 06:15 Clear 49 9.2 32 0 53 53 NW 14 22 29.71 1006 10 16.0934 N/A
6:35 am 06:35 Clear 46 8 33 0.3 59 59 NW 12 19 29.71 1006 10 16.0934 N/A
6:55 am 06:55 Clear 44 6.8 33 0.4 64 64 WNW 10 17 29.71 1006 10 16.0934 N/A
7:15 am 07:15 Clear 42 5.7 33 0.3 69 69 WNW 10 17 29.77 1008 10 16.0934 N/A
7:35 am 07:35 Clear 40 4.3 32 0 74 74 WNW 10 17 29.8 1009 10 16.0934 N/A
7:55 am 07:55 Sunny 39 3.9 32 0 76 76 WNW 9 15 29.83 1010 10 16.0934 N/A
8:15 am 08:15 Sunny 39 4 32 0.2 77 77 WNW 13 20 29.83 1010 10 16.0934 N/A
8:35 am 08:35 Sunny 40 4.6 33 0.6 76 76 WNW 13 20 29.8 1009 10 16.0934 N/A
8:55 am 08:55 Sunny 41 5.2 33 0.6 72 72 WNW 10 17 29.8 1009 10 16.0934 N/A
9:15 am 09:15 Sunny 44 6.4 33 0.7 67 67 WNW 13 20 29.8 1009 10 16.0934 N/A
9:35 am 09:35 Sunny 46 7.6 33 0.6 62 62 NW 13 20 29.77 1008 10 16.0934 N/A
9:55 am 09:55 Sunny 47 8.5 33 0.5 57 57 WNW 15 24 29.77 1008 10 16.0934 N/A
10:15 am 10:15 Sunny 48 9 33 0.5 56 56 WNW 17 28 29.77 1008 10 16.0934 N/A
10:35 am 10:35 Sunny 49 9.7 33 0.5 53 53 WNW 18 30 29.77 1008 10 16.0934 N/A
10:55 am 10:55 Sunny 52 10.9 32 0 47 47 NW 13 20 29.8 1009 10 16.0934 N/A
11:15 am 11:15 Sunny 53 11.7 31 -0.6 43 43 WNW 15 24 29.74 1007 10 16.0934 N/A
11:35 am 11:35 Sunny 55 12.5 28 -2.1 36 36 NW 18 30 29.74 1007 10 16.0934 N/A
11:55 am 11:55 Sunny 55 12.9 29 -1.8 36 36 WNW 22 35 29.71 1006 10 16.0934 N/A
12:15 pm 12:15 Sunny 56 13.4 28 -2 35 35 NW 15 24 29.71 1006 10 16.0934 N/A
12:35 pm 12:35 Sunny 57 14 25 -3.8 29 29 NNW 16 26 29.68 1005 10 16.0934 N/A
12:55 pm 12:55 Sunny 58 14.2 27 -2.7 31 31 WNW 10 17 29.65 1004 10 16.0934 N/A
1:15 pm 13:15 Sunny 58 14.7 27 -2.8 30 30 WNW 16 26 29.65 1004 10 16.0934 N/A
1:35 pm 13:35 Sunny 58 14.5 25 -4 28 28 NW 13 20 29.65 1004 10 16.0934 N/A
1:55 pm 13:55 Sunny 59 14.9 23 -4.9 25 25 NW 15 24 29.65 1004 10 16.0934 N/A
2:15 pm 14:15 Sunny 59 14.8 20 -6.4 23 23 WNW 13 20 29.65 1004 10 16.0934 N/A
2:35 pm 14:35 Sunny 59 15 20 -6.7 22 22 WNW 14 22 29.65 1004 10 16.0934 N/A
2:55 pm 14:55 Sunny 58 14.7 20 -6.5 23 23 WNW 16 26 29.65 1004 10 16.0934 N/A
3:15 pm 15:15 Sunny 58 14.6 20 -6.5 23 23 WNW 7 11 29.65 1004 10 16.0934 N/A
3:35 pm 15:35 Sunny 55 13 21 -6 26 26 WNW 8 13 29.68 1005 10 16.0934 N/A
3:55 pm 15:55 Sunny 54 12.3 23 -4.8 30 30 WNW 5 7 29.68 1005 10 16.0934 N/A
4:15 pm 16:15 Sunny 53 11.8 25 -4 33 33 WNW 3 6 29.68 1005 10 16.0934 N/A
4:35 pm 16:35 Sunny 51 10.6 24 -4.6 34 34 WSW 3 6 29.68 1005 10 16.0934 N/A
4:55 pm 16:55 Sunny 50 9.8 23 -5.1 35 35 SW 5 7 29.71 1006 10 16.0934 N/A
5:15 pm 17:15 Clear 49 9.3 25 -3.9 39 39 S 6 9 29.71 1006 10 16.0934 N/A
5:35 pm 17:35 Clear 47 8.5 25 -4 41 41 S 5 7 29.71 1006 7 11.26538 N/A
5:55 pm 17:55 Clear 45 7.2 25 -3.7 46 46 S 6 9 29.71 1006 10 16.0934 N/A
6:15 pm 18:15 Clear 47 8.3 25 -3.9 42 42 SSE 6 9 29.71 1006 10 16.0934 N/A
6:35 pm 18:35 Clear 43 6.1 27 -2.6 54 54 S 6 9 29.74 1007 10 16.0934 N/A
6:55 pm 18:55 Clear 44 6.5 27 -3 51 51 S 5 7 29.68 1005 10 16.0934 N/A
7:15 pm 19:15 Clear 42 5.5 26 -3.1 54 54 S 6 9 29.71 1006 10 16.0934 N/A
7:35 pm 19:35 Clear 43 6.1 28 -2.5 54 54 SSE 6 9 29.71 1006 10 16.0934 N/A
7:55 pm 19:55 Clear 43 6.2 27 -2.7 53 53 S 8 13 29.71 1006 10 16.0934 N/A
8:15 pm 20:15 Clear 42 5.4 26 -3.1 55 55 S 5 7 29.71 1006 10 16.0934 N/A
8:35 pm 20:35 Clear 42 5.7 27 -3 54 54 S 9 15 29.71 1006 10 16.0934 N/A
8:55 pm 20:55 Clear 45 7.3 26 -3.6 46 46 S 9 15 29.65 1004 10 16.0934 N/A
9:15 pm 21:15 Clear 43 6.1 26 -3.5 51 51 S 9 15 29.68 1005 10 16.0934 N/A
9:35 pm 21:35 Clear 41 5.1 26 -3.2 55 55 SSE 6 9 29.68 1005 10 16.0934 N/A
9:55 pm 21:55 Clear 44 6.6 26 -3.2 50 50 SE 5 7 29.62 1003 10 16.0934 N/A
10:15 pm 22:15 Clear 44 6.7 27 -3 50 50 SE 8 13 29.62 1003 10 16.0934 N/A
10:35 pm 22:35 Clear 46 7.5 26 -3.2 47 47 SE 8 13 29.59 1002 10 16.0934 N/A
10:55 pm 22:55 Clear 42 5.6 27 -2.6 56 56 SE 8 13 29.59 1002 10 16.0934 N/A
11:15 pm 23:15 Clear 42 5.6 28 -2.3 57 57 SE 8 13 29.59 1002 10 16.0934 N/A
11:35 pm 23:35 Clear 41 5.2 28 -2 60 60 SE 6 9 29.62 1003 10 16.0934 N/A
11:55 pm 23:55 Clear 44 6.4 29 -1.9 56 56 SSE 12 19 29.56 1001 10 16.0934 N/A

Powered by AerisWeather